Hourly Weather Holoholnya

Today, 12 April, Monday

Time Temperature Precipitation Wind Pressure Humidity
00:00 +8°C° 0 mm 2 mps 757 mmHg 80%
01:00 +7°C° 0 mm 2 mps 758 mmHg 81%
02:00 +7°C° 0 mm 2 mps 758 mmHg 81%
03:00 +6°C° 0 mm 2 mps 758 mmHg 81%
04:00 +6°C° 0 mm 2 mps 758 mmHg 81%
05:00 +6°C° 0 mm 2 mps 758 mmHg 81%
06:00 +7°C° 0 mm 2 mps 758 mmHg 74%
07:00 +9°C° 0 mm 2 mps 758 mmHg 68%
08:00 +11°C° 0 mm 3 mps 758 mmHg 61%
09:00 +12°C° 0 mm 3 mps 758 mmHg 56%
10:00 +13°C° 0 mm 4 mps 758 mmHg 51%
11:00 +14°C° 0 mm 4 mps 757 mmHg 46%
12:00 +14°C° 0 mm 4 mps 757 mmHg 43%
13:00 +15°C° 0 mm 5 mps 757 mmHg 41%
14:00 +15°C° 0 mm 5 mps 756 mmHg 39%
15:00 +14°C° 0 mm 4 mps 756 mmHg 44%
16:00 +13°C° 0 mm 4 mps 755 mmHg 49%
17:00 +12°C° 0 mm 4 mps 755 mmHg 54%
18:00 +11°C° 0 mm 3 mps 755 mmHg 61%
19:00 +10°C° 0 mm 3 mps 755 mmHg 69%
20:00 +9°C° 0 mm 2 mps 755 mmHg 76%
21:00 +9°C° 0 mm 2 mps 754 mmHg 81%
22:00 +8°C° 0 mm 2 mps 754 mmHg 87%
23:00 +8°C° 0 mm 2 mps 754 mmHg 92%

Tomorrow, 13 April, Tuesday

Time Temperature Precipitation Wind Pressure Humidity
00:00 +7°C° 0 mm 2 mps 753 mmHg 93%
01:00 +7°C° 0 mm 2 mps 753 mmHg 95%
02:00 +7°C° 0 mm 2 mps 753 mmHg 96%
03:00 +7°C° 0 mm 2 mps 753 mmHg 96%
04:00 +7°C° 0 mm 2 mps 752 mmHg 96%
05:00 +7°C° 0 mm 2 mps 752 mmHg 96%
06:00 +8°C° 0 mm 2 mps 752 mmHg 91%
07:00 +9°C° 0 mm 2 mps 752 mmHg 85%
08:00 +10°C° 0 mm 2 mps 752 mmHg 80%
09:00 +12°C° 0 mm 3 mps 752 mmHg 73%
10:00 +14°C° 0 mm 3 mps 752 mmHg 66%
11:00 +17°C° 0 mm 3 mps 752 mmHg 59%
12:00 +18°C° 0 mm 3 mps 751 mmHg 56%
13:00 +18°C° 0 mm 4 mps 751 mmHg 53%
14:00 +19°C° 0 mm 4 mps 751 mmHg 50%
15:00 +19°C° 0 mm 3 mps 751 mmHg 52%
16:00 +19°C° 0 mm 3 mps 751 mmHg 55%
17:00 +18°C° 0 mm 2 mps 750 mmHg 58%
18:00 +17°C° 0 mm 2 mps 750 mmHg 64%
19:00 +15°C° 0 mm 2 mps 750 mmHg 70%
20:00 +13°C° 0 mm 2 mps 751 mmHg 76%
21:00 +13°C° 0 mm 2 mps 750 mmHg 77%
22:00 +12°C° 0 mm 2 mps 750 mmHg 78%
23:00 +12°C° 0 mm 2 mps 750 mmHg 79%

Day after tomorrow, 14 April, Wednesday

Time Temperature Precipitation Wind Pressure Humidity
00:00 +10°C° 0 mm 2 mps 750 mmHg 80%
01:00 +10°C° 0 mm 2 mps 750 mmHg 81%
02:00 +9°C° 0 mm 2 mps 749 mmHg 81%
03:00 +9°C° 0 mm 2 mps 749 mmHg 82%
04:00 +8°C° 0 mm 2 mps 749 mmHg 82%
05:00 +8°C° 0 mm 2 mps 749 mmHg 82%
06:00 +10°C° 0 mm 3 mps 749 mmHg 77%
07:00 +11°C° 0 mm 3 mps 749 mmHg 71%
08:00 +13°C° 0 mm 4 mps 749 mmHg 66%
09:00 +14°C° 0 mm 4 mps 749 mmHg 63%
10:00 +15°C° 0 mm 4 mps 748 mmHg 61%
11:00 +17°C° 0 mm 4 mps 748 mmHg 59%
12:00 +17°C° 0.1 mm 4 mps 748 mmHg 58%
13:00 +17°C° 0.1 mm 4 mps 748 mmHg 58%
14:00 +18°C° 0.1 mm 4 mps 748 mmHg 57%
15:00 +17°C° 0.4 mm 3 mps 748 mmHg 63%
16:00 +16°C° 0.4 mm 3 mps 748 mmHg 69%
17:00 +15°C° 0.4 mm 2 mps 748 mmHg 75%
18:00 +14°C° 0.2 mm 2 mps 748 mmHg 78%
19:00 +13°C° 0.2 mm 1 mps 748 mmHg 81%
20:00 +12°C° 0.2 mm 1 mps 748 mmHg 83%
21:00 +12°C° 0 mm 1 mps 748 mmHg 84%
22:00 +11°C° 0 mm 1 mps 748 mmHg 85%
23:00 +11°C° 0 mm 1 mps 748 mmHg 85%

15 April, Thursday

Time Temperature Precipitation Wind Pressure Humidity
00:00 +10°C° 0 mm 1 mps 748 mmHg 88%
01:00 +10°C° 0 mm 1 mps 748 mmHg 90%
02:00 +8°C° 0 mm 2 mps 748 mmHg 92%
03:00 +8°C° 0 mm 2 mps 748 mmHg 93%
04:00 +8°C° 0 mm 2 mps 748 mmHg 94%
05:00 +8°C° 0 mm 2 mps 748 mmHg 94%
06:00 +9°C° 0 mm 2 mps 748 mmHg 91%
07:00 +10°C° 0 mm 2 mps 748 mmHg 88%
08:00 +10°C° 0 mm 2 mps 748 mmHg 84%
09:00 +13°C° 0 mm 2 mps 748 mmHg 77%
10:00 +14°C° 0 mm 2 mps 748 mmHg 69%
11:00 +14°C° 0 mm 3 mps 748 mmHg 62%
12:00 +16°C° 0 mm 3 mps 748 mmHg 59%
13:00 +16°C° 0 mm 3 mps 748 mmHg 57%
14:00 +17°C° 0 mm 3 mps 748 mmHg 54%
15:00 +16°C° 0 mm 3 mps 748 mmHg 58%
16:00 +14°C° 0 mm 3 mps 748 mmHg 62%
17:00 +14°C° 0 mm 3 mps 748 mmHg 66%
18:00 +13°C° 0 mm 4 mps 748 mmHg 72%
19:00 +11°C° 0 mm 4 mps 748 mmHg 79%
20:00 +10°C° 0 mm 4 mps 748 mmHg 85%
21:00 +8°C° 0 mm 4 mps 748 mmHg 88%
22:00 +8°C° 0 mm 4 mps 749 mmHg 90%
23:00 +7°C° 0 mm 4 mps 749 mmHg 92%

16 April, Friday

Time Temperature Precipitation Wind Pressure Humidity
00:00 +7°C° 0 mm 4 mps 749 mmHg 93%
01:00 +6°C° 0 mm 4 mps 749 mmHg 93%
02:00 +6°C° 0 mm 4 mps 749 mmHg 93%
03:00 +6°C° 0 mm 4 mps 749 mmHg 93%
04:00 +5°C° 0 mm 4 mps 749 mmHg 93%
05:00 +5°C° 0 mm 4 mps 749 mmHg 93%
06:00 +6°C° 0 mm 4 mps 750 mmHg 91%
07:00 +6°C° 0 mm 4 mps 750 mmHg 88%
08:00 +6°C° 0 mm 5 mps 750 mmHg 85%
09:00 +7°C° 0 mm 5 mps 750 mmHg 81%
10:00 +8°C° 0 mm 5 mps 751 mmHg 76%
11:00 +10°C° 0 mm 5 mps 751 mmHg 71%
12:00 +10°C° 0 mm 5 mps 751 mmHg 68%
13:00 +12°C° 0 mm 5 mps 751 mmHg 66%
14:00 +12°C° 0 mm 5 mps 751 mmHg 63%
15:00 +12°C° 0 mm 5 mps 751 mmHg 63%
16:00 +10°C° 0 mm 5 mps 752 mmHg 64%
17:00 +10°C° 0 mm 5 mps 752 mmHg 65%
18:00 +8°C° 0 mm 5 mps 752 mmHg 63%
19:00 +7°C° 0 mm 5 mps 753 mmHg 62%
20:00 +6°C° 0 mm 5 mps 753 mmHg 60%
21:00 +5°C° 0 mm 5 mps 753 mmHg 60%
22:00 +5°C° 0 mm 5 mps 754 mmHg 61%
23:00 +3°C° 0 mm 5 mps 754 mmHg 61%

17 April, Saturday

Time Temperature Precipitation Wind Pressure Humidity
00:00 +3°C° 0 mm 5 mps 755 mmHg 63%
01:00 +2°C° 0 mm 5 mps 755 mmHg 66%
02:00 +2°C° 0 mm 5 mps 755 mmHg 68%
03:00 +1°C° 0 mm 4 mps 756 mmHg 71%
04:00 +1°C° 0 mm 4 mps 756 mmHg 73%
05:00 0°C° 0 mm 4 mps 757 mmHg 75%
06:00 +1°C° 0 mm 5 mps 757 mmHg 71%
07:00 +2°C° 0 mm 5 mps 757 mmHg 67%
08:00 +3°C° 0 mm 5 mps 758 mmHg 63%
09:00 +6°C° 0 mm 5 mps 758 mmHg 55%
10:00 +7°C° 0 mm 5 mps 758 mmHg 48%
11:00 +8°C° 0 mm 5 mps 758 mmHg 40%
12:00 +8°C° 0 mm 5 mps 759 mmHg 38%
13:00 +9°C° 0 mm 5 mps 759 mmHg 35%
14:00 +10°C° 0 mm 5 mps 759 mmHg 32%
15:00 +10°C° 0 mm 4 mps 759 mmHg 34%
16:00 +10°C° 0 mm 4 mps 759 mmHg 36%
17:00 +8°C° 0 mm 4 mps 759 mmHg 38%
18:00 +8°C° 0 mm 3 mps 759 mmHg 43%
19:00 +5°C° 0 mm 3 mps 760 mmHg 49%
20:00 +4°C° 0 mm 2 mps 760 mmHg 55%
21:00 +4°C° 0 mm 2 mps 760 mmHg 57%
22:00 +3°C° 0 mm 2 mps 760 mmHg 59%
23:00 +3°C° 0 mm 2 mps 761 mmHg 61%
Show more